This is the latest recevied weather packets stored in our database for station/object AK4NG. If no packets are shown the sender has not sent any weather packets the latest 10 day(s).
| Time | Temp. | Humidity | Pressure | Rain* | Wind** | Luminosity | Snow |
|---|---|---|---|---|---|---|---|
| 1777856886 | 15° C | 68% | 1019 hPa | 0 mm | - | 0 W/m² | - |
| 1777856582 | 15° C | 66% | 1018.9 hPa | 0 mm | - | 0 W/m² | - |
| 1777856279 | 15° C | 68% | 1018.9 hPa | 0 mm | - | 0 W/m² | - |
| 1777855976 | 15° C | 69% | 1018.9 hPa | 0 mm | - | 0 W/m² | - |
| 1777855673 | 15.56° C | 65% | 1018.7 hPa | 0 mm | - | 0 W/m² | - |
| 1777855371 | 15.56° C | 64% | 1018.9 hPa | 0 mm | - | 0 W/m² | - |
| 1777855067 | 16.11° C | 65% | 1018.6 hPa | 0 mm | - | 1 W/m² | - |
| 1777854764 | 16.11° C | 61% | 1018.4 hPa | 0 mm | - | 2 W/m² | - |
| 1777854460 | 16.67° C | 60% | 1018.6 hPa | 0 mm | - | 3 W/m² | - |
| 1777854157 | 16.67° C | 56% | 1018.3 hPa | 0 mm | - | 6 W/m² | - |
| 1777853855 | 17.22° C | 55% | 1018.3 hPa | 0 mm | - | 9 W/m² | - |
| 1777853552 | 17.78° C | 53% | 1018.1 hPa | 0 mm | - | 13 W/m² | - |
| 1777853248 | 18.33° C | 51% | 1018.4 hPa | 0 mm | - | 17 W/m² | - |
| 1777852945 | 19.44° C | 47% | 1018.2 hPa | 0 mm | - | 20 W/m² | - |
| 1777852644 | 20° C | 43% | 1018.3 hPa | 0 mm | - | 24 W/m² | - |
| 1777852341 | 20.56° C | 43% | 1018.3 hPa | 0 mm | - | 32 W/m² | - |
| 1777852039 | 21.11° C | 42% | 1018.6 hPa | 0 mm | - | 37 W/m² | - |
| 1777851736 | 21.67° C | 38% | 1018.4 hPa | 0 mm | - | 44 W/m² | - |
| 1777851433 | 21.67° C | 37% | 1018.1 hPa | 0 mm | - | 51 W/m² | - |
| 1777851129 | 21.67° C | 38% | 1018.5 hPa | 0 mm | - | 59 W/m² | - |
| 1777850826 | 21.67° C | 35% | 1018.5 hPa | 0 mm | - | 69 W/m² | - |
| 1777850523 | 21.67° C | 35% | 1018.4 hPa | 0 mm | - | 79 W/m² | - |
| 1777850221 | 21.67° C | 34% | 1018.3 hPa | 0 mm | - | 88 W/m² | - |
| 1777849917 | 22.22° C | 32% | 1018.5 hPa | 0 mm | - | 101 W/m² | - |
| 1777849614 | 22.22° C | 32% | 1018.6 hPa | 0 mm | - | 114 W/m² | - |
* Rain latest hour (hover to see other rain measurements)
** Current wind speed in m/s (hover to see current wind gust speed)